This is the latest recevied weather packets stored in our database for station/object NQ9F. If no packets are shown the sender has not sent any weather packets the latest 10 day(s).
| Time | Temp. | Humidity | Pressure | Rain* | Wind** | Luminosity | Snow |
|---|---|---|---|---|---|---|---|
| 1777899620 | 16.67° C | 79% | 1012.3 hPa | 0 mm | - | 130 W/m² | - |
| 1777899316 | 16.67° C | 79% | 1012.4 hPa | 0 mm | - | 139 W/m² | - |
| 1777899014 | 16.67° C | 79% | 1012.4 hPa | 0 mm | - | 118 W/m² | - |
| 1777898711 | 16.11° C | 79% | 1012.4 hPa | 0 mm | - | 100 W/m² | - |
| 1777898409 | 16.11° C | 80% | 1012.3 hPa | 0 mm | - | 76 W/m² | - |
| 1777898106 | 16.11° C | 79% | 1012.5 hPa | 0 mm | - | 64 W/m² | - |
| 1777897802 | 16.11° C | 79% | 1012.3 hPa | 0 mm | - | 51 W/m² | - |
| 1777897499 | 16.11° C | 79% | 1012.4 hPa | 0 mm | - | 42 W/m² | - |
| 1777897194 | 15.56° C | 79% | 1012.3 hPa | 0 mm | - | 37 W/m² | - |
| 1777896890 | 15.56° C | 79% | 1012.3 hPa | 0 mm | - | 35 W/m² | - |
| 1777896588 | 15.56° C | 79% | 1012.2 hPa | 0 mm | - | 30 W/m² | - |
| 1777896284 | 16.11° C | 78% | 1012.2 hPa | 0 mm | - | 22 W/m² | - |
| 1777895983 | 16.11° C | 78% | 1012.1 hPa | 0 mm | - | 18 W/m² | - |
| 1777895681 | 16.11° C | 78% | 1012.2 hPa | 0 mm | - | 15 W/m² | - |
| 1777895377 | 16.11° C | 78% | 1012.2 hPa | 0 mm | - | 10 W/m² | - |
| 1777895075 | 16.11° C | 78% | 1012.2 hPa | 0 mm | - | 6 W/m² | - |
| 1777894772 | 16.11° C | 78% | 1012.1 hPa | 0 mm | - | 3 W/m² | - |
| 1777894469 | 16.11° C | 77% | 1012.1 hPa | 0 mm | - | 2 W/m² | - |
| 1777894167 | 16.11° C | 77% | 1012.3 hPa | 0 mm | - | 0 W/m² | - |
| 1777893863 | 16.11° C | 76% | 1011.9 hPa | 0 mm | - | 0 W/m² | - |
| 1777893560 | 16.11° C | 76% | 1012.3 hPa | 0 mm | - | 0 W/m² | - |
| 1777893256 | 16.11° C | 76% | 1012.2 hPa | 0 mm | - | 0 W/m² | - |
| 1777892947 | 16.11° C | 75% | 1012.3 hPa | 0 mm | - | 0 W/m² | - |
| 1777892643 | 16.11° C | 74% | 1012.3 hPa | 0 mm | - | 0 W/m² | - |
| 1777892333 | 16.11° C | 74% | 1012.4 hPa | 0 mm | - | 0 W/m² | - |
* Rain latest hour (hover to see other rain measurements)
** Current wind speed in m/s (hover to see current wind gust speed)